GONETS D1 7

Satellite information

Favourite Embed

Satellite Type and Status

PAYLOADIN ORBIT

Key statistics

Satellite GONETS D1 7 at a glance.

Uptime

8717

Days in orbit

Revolutions

≈ 12.6

Per day

Orbit

LEO

Low Earth Orbit

Inclination

82.5

Latest

Satellite identification and parameters

Extended collection of information and parameters for GONETS D1 7.

Object identification

Identified? True

Debris? False

Object name: GONETS D1 7

International designator: 2001-058D

Object number (NORAD): 27058

Object ID (CCSDS): 27058

Country: COMMONWEALTH OF INDEPENDENT STATES (CIS)

Current information (Y/N): Y

RCS size: MEDIUM

Orbital parameters

Period: 114.097 minutes

Inclination: 82.5358 deg

SMA: 7792.508 km

Apoapsis: 1417.518 km

Periapsis: 1411.228 km

RAAN: 343.4697 deg

Eccentricy: 0.0004036

Argument of periapsis: 125.8562 deg

Mean anomaly: 234.2904 deg

Mean motion: 12.6208003 rev/day

Mean motion (dot): 0.00000016 rev/day2

B* drag term: 0.000032869 1/REarth

Two-line elements (TLE)

Creation date: Nov. 8, 2025, 3:06 p.m.

Reference frame: TEME

Reference center: EARTH

Epoch: Nov. 8, 2025, 10:40 a.m. UTC

TLE line 0: 0 GONETS D1 7

TLE line 1: 1 27058U 01058D 25312.44457391 .00000016 00000-0 32869-4 0 9995

TLE line 2: 2 27058 82.5358 343.4697 0004036 125.8562 234.2904 12.62080030 99142

Live tracking on map

Real-time ground track for satellite GONETS D1 7.

In-orbit conjunctions

There are no conjunctions computed for GONETS D1 7, at the moment. Check back to stay up to date, as we update our databases every day.

Go to all conjunctions

Associated space launch

Gonets- satellite were the civilian derivate of the military Strela-3 satellite system. The Gonets system was offered to support international health organizations to meet their global communications needs for the transfer of medical data and records to remote sites. Strela-3 was second generation of strategic store-dump military communications satellite. Development of this generation to replace the first generation Strela-1M and Strela-2M satellites began in 1973.

GONETS D1 7 was lifted into orbit during the mission ‘Tsiklon-3 | Strela-3 128 to 130 & Gonets 10 to 12’, on board a Tsiklon-3 space rocket.

The launch took place on Dec. 28, 2001, 3:24 a.m. from 32/1.

For more information about the launch, click the button.

Launch to space Tsiklon-3 | Strela-3 128 to 130 & Gonets 10 to 12
Tsiklon-3 | Strela-3 128 to 130 & Gonets 10 to 12

Agency: N/A

Status: Launch Successful

Launch date: Dec. 28, 2001, 3:24 a.m. UTC

Rocket: Tsiklon-3

Launch pad: 32/1

Location: Plesetsk Cosmodrome, Russian Federation

...

Latest news about this satellite

There are no fresh news available about this satellite. Check back as we update our databases every day.


Newsletter sign-up

Weekly statistics, charts and insights to help you stay on top of the space industry.